Weather History for Osijek - Cepin, Croatia

Change the Weather History Date:

Tuesday, April 23, 2013

  Actual Average Record
Temperature  
Mean Temperature 62 °F -  
Max Temperature 73 °F - - ()
Min Temperature 51 °F - - ()
Degree Days  
Heating Degree Days 3    
Growing Degree Days 12 (Base 50)    
Moisture  
Dew Point 47 °F    
Average Humidity 65    
Maximum Humidity 94    
Minimum Humidity 29    
Precipitation  
Precipitation 0.00 in - - ()
Sea Level Pressure  
Sea Level Pressure 30.14 in    
Wind  
Wind Speed 5 mph ()    
Max Wind Speed 9 mph    
Max Gust Speed -    
Visibility 6.2 miles    
Events Rain    
T = Trace of Precipitation, MM = Missing Value Source: Averaged Metar Reports

Daily Weather History Graph

Daily Weather History Graph

Search for Another Location

Airport:

Trip Planner

Search our weather history database for the weather conditions in past years. The results will help you decide how hot, cold, wet, or windy it might be!

Date:

Astronomy

Apr. 23, 2013 Rise Set
Actual Time 5:45 AM CEST 7:41 PM CEST
Civil Twilight 5:14 AM CEST 8:13 PM CEST
Nautical Twilight 4:35 AM CEST 8:52 PM CEST
Astronomical Twilight 3:52 AM CEST 9:35 PM CEST
Moon 5:10 PM CEST (4/23) 4:11 AM CEST (4/23)
Length of Visible Light 14h 59m
Length of Day
13h 55m
Waxing Gibbous, 92% of the Moon is Illuminated
Apr 23
Waxing Gibbous
Apr 25
Full
May 2
Last Quarter
May 10
New
May 18
First Quarter

Hourly Weather History & Observations

Time (CEST) Temp. Dew Point Humidity Pressure Visibility Wind Dir Wind Speed Gust Speed Precip Events Conditions
12:00 AM 57.2 °F 53.6 °F 88% 30.01 in - South 8.1 mph - N/A   Clear
12:30 AM 57.2 °F 55.4 °F 94% 30.04 in 6.2 mi South 5.8 mph - N/A   Scattered Clouds
1:00 AM 57.2 °F 55.4 °F 94% 30.04 in 6.2 mi South 6.9 mph - N/A   Scattered Clouds
1:30 AM 57.2 °F 55.4 °F 94% 30.04 in 6.2 mi SSW 5.8 mph - N/A Rain Light Rain
2:00 AM 57.2 °F 55.4 °F 94% 30.04 in 6.2 mi SW 4.6 mph - N/A Rain Light Rain
2:30 AM 57.2 °F 55.4 °F 94% 30.04 in 6.2 mi Calm Calm - N/A Rain Light Rain
3:00 AM 55.4 °F 53.6 °F 94% 30.04 in 6.2 mi NW 3.5 mph - N/A   Scattered Clouds
3:30 AM 55.4 °F 53.6 °F 94% 30.04 in 6.2 mi Calm Calm - N/A   Scattered Clouds
4:00 AM 55.4 °F 51.8 °F 88% 30.04 in 6.2 mi SSW 6.9 mph - N/A   Partly Cloudy
4:30 AM 55.4 °F 51.8 °F 88% 30.06 in - South 5.8 mph - N/A   Clear
5:00 AM 53.6 °F 51.8 °F 94% 30.06 in - SSW 6.9 mph - N/A   Clear
5:30 AM 53.6 °F 51.8 °F 94% 30.06 in - West 5.8 mph - N/A   Clear
6:00 AM 51.8 °F 50.0 °F 94% 30.09 in - WSW 6.9 mph - N/A   Clear
6:30 AM 51.8 °F 50.0 °F 94% 30.09 in - WSW 5.8 mph - N/A   Clear
7:00 AM 51.8 °F 50.0 °F 94% 30.12 in - SW 6.9 mph - N/A   Clear
7:30 AM 51.8 °F 50.0 °F 94% 30.12 in - SW 4.6 mph - N/A   Clear
8:00 AM 53.6 °F 51.8 °F 94% 30.12 in - SW 6.9 mph - N/A   Clear
8:30 AM 53.6 °F 51.8 °F 94% 30.15 in - SW 6.9 mph - N/A   Clear
9:00 AM 59.0 °F 55.4 °F 88% 30.15 in - SW 6.9 mph - N/A   Clear
9:30 AM 59.0 °F 55.4 °F 88% 30.15 in - SSW 5.8 mph - N/A   Clear
10:00 AM 60.8 °F 50.0 °F 68% 30.18 in 6.2 mi WSW 4.6 mph - N/A   Partly Cloudy
10:30 AM 60.8 °F 50.0 °F 68% 30.18 in 6.2 mi NW 3.5 mph - N/A   Partly Cloudy
11:00 AM 64.4 °F 44.6 °F 49% 30.18 in 6.2 mi WNW 4.6 mph - N/A   Partly Cloudy
11:30 AM 64.4 °F 44.6 °F 49% 30.18 in 6.2 mi Variable 4.6 mph - N/A   Partly Cloudy
12:00 PM 64.4 °F 46.4 °F 52% 30.18 in 6.2 mi Variable 5.8 mph - N/A   Partly Cloudy
12:30 PM 64.4 °F 46.4 °F 52% 30.18 in 6.2 mi NW 2.3 mph - N/A   Partly Cloudy
1:00 PM 68.0 °F 44.6 °F 43% 30.18 in 6.2 mi WSW 4.6 mph - N/A   Partly Cloudy
1:30 PM 68.0 °F 44.6 °F 43% 30.18 in 6.2 mi NNW 3.5 mph - N/A   Partly Cloudy
2:00 PM 69.8 °F 42.8 °F 38% 30.18 in 6.2 mi North 1.2 mph - N/A   Partly Cloudy
2:30 PM 69.8 °F 42.8 °F 38% 30.18 in 6.2 mi Variable 3.5 mph - N/A   Partly Cloudy
3:00 PM 69.8 °F 41.0 °F 35% 30.18 in 6.2 mi Variable 5.8 mph - N/A   Partly Cloudy
3:30 PM 69.8 °F 41.0 °F 35% 30.18 in 6.2 mi North 9.2 mph - N/A   Partly Cloudy
4:00 PM 71.6 °F 41.0 °F 33% 30.18 in 6.2 mi NW 6.9 mph - N/A   Partly Cloudy
4:30 PM 71.6 °F 41.0 °F 33% 30.18 in 6.2 mi North 5.8 mph - N/A   Partly Cloudy
5:00 PM 71.6 °F 41.0 °F 33% 30.18 in 6.2 mi North 5.8 mph - N/A   Partly Cloudy
5:30 PM 71.6 °F 41.0 °F 33% 30.18 in 6.2 mi NNE 5.8 mph - N/A   Partly Cloudy
6:00 PM 73.4 °F 41.0 °F 31% 30.15 in 6.2 mi NNE 4.6 mph - N/A   Partly Cloudy
6:30 PM 73.4 °F 41.0 °F 31% 30.18 in 6.2 mi NE 2.3 mph - N/A   Partly Cloudy
7:00 PM 71.6 °F 37.4 °F 29% 30.18 in - Calm Calm - N/A   Clear
7:30 PM 71.6 °F 37.4 °F 29% 30.18 in - NNE 1.2 mph - N/A   Clear
8:00 PM 66.2 °F 44.6 °F 46% 30.18 in - NE 4.6 mph - N/A   Clear
8:30 PM 64.4 °F 44.6 °F 49% 30.21 in - NNE 4.6 mph - N/A   Clear
9:00 PM 62.6 °F 42.8 °F 48% 30.21 in - North 4.6 mph - N/A   Clear
9:30 PM 60.8 °F 42.8 °F 52% 30.21 in - North 4.6 mph - N/A   Clear
10:00 PM 60.8 °F 44.6 °F 55% 30.24 in - NNW 2.3 mph - N/A   Clear
10:30 PM 60.8 °F 44.6 °F 55% 30.24 in - Calm Calm - N/A   Clear
11:00 PM 59.0 °F 46.4 °F 63% 30.27 in - Calm Calm - N/A   Clear
11:30 PM 59.0 °F 46.4 °F 63% 30.27 in - Calm Calm - N/A   Clear